Location: Vinland
(47.7731°N, 122.6974°W)
Time: 11:38:41
(UTC+00:00)

Transit 2A Rocket - Visible Passes

Search period start: 30 March 2023 00:00
Search period end: 09 April 2023 00:00
Orbit: 583 x 916 km, 66.7° (Epoch: 30 March)

Date Brightness Start Highest point End Pass type
(mag) Time Alt. Az. Time Alt. Az. Time Alt. Az.
30 Mar 6.0 03:29:38 10° NW 03:35:36 56° WSW 03:41:16 10° SSE visible
31 Mar 7.7 04:30:28 10° WNW 04:34:08 17° WSW 04:37:42 10° SW visible
01 Apr 7.3 03:46:18 10° NW 03:51:18 27° WSW 03:56:04 10° SSW visible
02 Apr 6.6 03:02:37 10° NW 03:08:20 43° WSW 03:13:46 10° S visible
03 Apr 8.1 04:04:26 10° WNW 04:06:40 12° W 04:08:52 10° WSW visible
04 Apr 7.8 03:19:35 10° WNW 03:23:54 21° WSW 03:28:03 10° SSW visible
